Regional Weather Roundup
Issued by NWS Little Rock, AR

Home | Current Version | Previous Version | Graphics & Text | Print | Product List | Glossary On
Versions: 1 2 3 4 5 6 7 8 9 10 11 12 13 14 15 16 17 18 19 20 21 22 23 24 25 26 27 28 29 30 31
000
ASUS44 KLZK 202105
RWRLZK

WEATHER ROUNDUP FOR ARKANSAS
NATIONAL WEATHER SERVICE LITTLE ROCK AR
300 PM CST MON FEB 20 2017

NOTE: "FAIR" INDICATES FEW OR NO CLOUDS BELOW 12,000 FEET WITH NO
SIGNIFICANT WEATHER AND/OR OBSTRUCTIONS TO VISIBILITY.

ARZ001-003-010-029-202200-
NORTHWEST ARKANSAS

CITY           SKY/WX    TMP DP  RH WIND       PRES   REMARKS
FAYETTEVILLE   CLOUDY    65  56  72 S10       29.89S
FORT SMITH     CLOUDY    67  56  67 SE5       29.89S
HARRISON       MOSUNNY   67  60  78 S23       29.92R
BENTONVILLE    CLOUDY    64  55  72 W7        29.92R
ROGERS         CLOUDY    65  55  70 SW9       29.92R
SILOAM SPGS    CLOUDY    63  55  77 W12       29.92R
HIGHFILL       CLOUDY    63  57  81 W9        29.91R
SPRINGDALE     CLOUDY    66  55  68 S12       29.92R
$$

ARZ004-005-016-202200-
NORTH CENTRAL ARKANSAS

CITY           SKY/WX    TMP DP  RH WIND       PRES   REMARKS
BATESVILLE     PTSUNNY   77  59  53 S12G22    29.94S
FLIPPIN        MOSUNNY   75  55  50 S10G20    29.88S
MTN HOME       MOSUNNY   75  57  53 SW15G21   29.89
$$

ARZ040-041-202200-
WEST CENTRAL ARKANSAS

CITY           SKY/WX    TMP DP  RH WIND       PRES   REMARKS
MENA           CLOUDY    64  63  94 W3        29.94F
MOUNT IDA      MOSUNNY   71  52  50 VRB7      29.90F
$$

ARZ009-017-025-026-028-202200-
NORTHEAST ARKANSAS

CITY           SKY/WX    TMP DP  RH WIND       PRES   REMARKS
CORNING        FAIR      75  57  53 SE17G23   29.96F
JONESBORO      CLOUDY    76  52  43 S16       29.96F
NEWPORT        CLOUDY    77  61  57 MISG        N/A
WALNUT RIDGE   CLOUDY    75  55  50 S22G29    29.94F
BLYTHEVILLE    SUNNY     77  57  50 SW10      29.99F
$$

ARZ022-023-033-042-044-202200-
CENTRAL ARKANSAS

CITY           SKY/WX    TMP DP  RH WIND       PRES   REMARKS
LITTLE ROCK    PTSUNNY   76  60  57 SW12      29.91F
N LITTLE ROCK    N/A     74  61  65 S6        29.92F
JACKSONVILLE   MOSUNNY   78  63  59 S5        29.90F
SEARCY         PTSUNNY   77  63  61 S16       29.93F
HOT SPRINGS    MOSUNNY   73  58  59 SW5       29.92F
RUSSELLVILLE   PTSUNNY   76  56  49 SW9       29.89F
CLINTON        PTSUNNY   77  59  53 SE14G20   29.90F
$$

ARZ036-202200-
EAST ARKANSAS

CITY           SKY/WX    TMP DP  RH WIND       PRES   REMARKS
WEST MEMPHIS   PTSUNNY   75  53  46 S18       29.98F
$$

ARZ050-053-066-070-073-202200-
SOUTHWEST ARKANSAS

CITY           SKY/WX    TMP DP  RH WIND       PRES   REMARKS
ARKADELPHIA    MOCLDY    73  58  59 VRB3      29.91F
CAMDEN         CLOUDY    72  61  68 W3        29.92F
TEXARKANA      LGT RAIN  63  60  90 SW12      29.96R
EL DORADO      PTSUNNY   70  60  70 W7        29.92F
DE QUEEN       CLOUDY    63  61  93 SW5       29.93F
$$

ARZ056-057-069-202200-
SOUTHEAST ARKANSAS

CITY           SKY/WX    TMP DP  RH WIND       PRES   REMARKS
PINE BLUFF     MOSUNNY   78  62  57 S15       29.92F
STUTTGART      MOSUNNY   77  57  50 SE17      29.94F
MONTICELLO     PTSUNNY   77  61  57 SE10G17   29.93F

$$






USA.gov is the U.S. government's official web portal to all federal, state and local government web resources and services.